ACA1550 CYHU-KTPA

Flight info

Callsign ACA1550
Flight time 2h 58m
Altitude 38000
Route FAWNS DCT BUGSY DCT SYR J59 PSB Q71 EMNEM Q103 SLOJO Q75 TEUFL DCT BAAMF DADES2
Aircraft A20N/M-SDE2E3FGHIRWXY/LB1

Departure

Time 2026-04-21 21:43
Airport Montréal / Saint-Hubert Metropolitan Airport (CYHU)

Arrival

Time 2026-04-22 00:41
Airport Tampa International Airport (KTPA)
Time Latitude Longitude Altitude Speed Heading
2026-04-21 21:29 45.51828 -73.42362 92 ft 0 kts 352°
2026-04-21 21:32 45.51820 -73.42360 91 ft 1 kts 351°
2026-04-21 21:32 45.51811 -73.42358 93 ft 1 kts 332°
2026-04-21 21:32 45.51803 -73.42350 91 ft 1 kts 307°
2026-04-21 21:33 45.51798 -73.42338 91 ft 1 kts 285°
2026-04-21 21:33 45.51796 -73.42325 90 ft 1 kts 271°
2026-04-21 21:33 45.51796 -73.42311 91 ft 1 kts 254°
2026-04-21 21:33 45.51800 -73.42297 93 ft 1 kts 235°
2026-04-21 21:34 45.51805 -73.42286 91 ft 1 kts 219°
2026-04-21 21:34 45.51813 -73.42279 91 ft 1 kts 195°
2026-04-21 21:34 45.51823 -73.42276 91 ft 1 kts 172°
2026-04-21 21:34 45.51825 -73.42276 91 ft 0 kts 167°
2026-04-21 21:35 45.51815 -73.42273 91 ft 5 kts 167°
2026-04-21 21:36 45.51754 -73.42253 92 ft 6 kts 168°
2026-04-21 21:36 45.51695 -73.42234 88 ft 10 kts 154°
2026-04-21 21:36 45.51689 -73.42221 88 ft 2 kts 108°
2026-04-21 21:36 45.51709 -73.42172 89 ft 9 kts 54°
2026-04-21 21:37 45.51761 -73.42092 92 ft 13 kts 46°
2026-04-21 21:37 45.51817 -73.42006 93 ft 13 kts 47°
2026-04-21 21:37 45.51891 -73.41892 94 ft 17 kts 46°
2026-04-21 21:37 45.51978 -73.41762 94 ft 15 kts 47°
2026-04-21 21:38 45.52063 -73.41632 93 ft 20 kts 47°
2026-04-21 21:38 45.52163 -73.41480 90 ft 20 kts 47°
2026-04-21 21:38 45.52247 -73.41351 90 ft 18 kts 46°
2026-04-21 21:38 45.52341 -73.41209 92 ft 22 kts 51°
2026-04-21 21:39 45.52450 -73.41042 95 ft 24 kts 46°
2026-04-21 21:39 45.52530 -73.40919 97 ft 13 kts 51°
2026-04-21 21:39 45.52531 -73.40890 96 ft 0 kts 105°
2026-04-21 21:41 45.52529 -73.40886 96 ft 2 kts 112°
2026-04-21 21:41 45.52516 -73.40868 97 ft 5 kts 138°
2026-04-21 21:41 45.52467 -73.40820 97 ft 9 kts 179°
2026-04-21 21:41 45.52425 -73.40863 97 ft 0 kts 231°
2026-04-21 21:42 45.52421 -73.40868 96 ft 5 kts 225°
2026-04-21 21:42 45.52208 -73.41190 92 ft 83 kts 226°
2026-04-21 21:42 45.51673 -73.42001 117 ft 137 kts 227°
2026-04-21 21:42 45.50990 -73.43057 539 ft 150 kts 227°
2026-04-21 21:43 45.50257 -73.44236 1004 ft 173 kts 228°
2026-04-21 21:43 45.49387 -73.45624 1490 ft 192 kts 222°
2026-04-21 21:43 45.48382 -73.46837 2416 ft 194 kts 218°
2026-04-21 21:43 45.47269 -73.48079 2965 ft 212 kts 218°
2026-04-21 21:44 45.46067 -73.49471 3544 ft 233 kts 219°
2026-04-21 21:44 45.44799 -73.51023 4367 ft 243 kts 221°
2026-04-21 21:44 45.43533 -73.52624 5563 ft 245 kts 223°
2026-04-21 21:44 45.42243 -73.54274 6659 ft 254 kts 224°
2026-04-21 21:45 45.40917 -73.55979 7791 ft 260 kts 225°
2026-04-21 21:45 45.39560 -73.57730 8920 ft 267 kts 225°
2026-04-21 21:45 45.38162 -73.59532 10064 ft 275 kts 225°
2026-04-21 21:45 45.36703 -73.61411 10802 ft 295 kts 226°
2026-04-21 21:46 45.35120 -73.63453 11337 ft 319 kts 226°
2026-04-21 21:46 45.33432 -73.65623 12111 ft 332 kts 227°
2026-04-21 21:46 45.31700 -73.67835 13134 ft 338 kts 227°
2026-04-21 21:46 45.29931 -73.70091 14102 ft 345 kts 228°
2026-04-21 21:47 45.28135 -73.72378 15006 ft 349 kts 229°
2026-04-21 21:47 45.26317 -73.74700 15923 ft 354 kts 229°
2026-04-21 21:47 45.24480 -73.77049 16813 ft 359 kts 230°
2026-04-21 21:47 45.22613 -73.79437 17686 ft 364 kts 230°
2026-04-21 21:48 45.21362 -73.81035 18283 ft 367 kts 230°
2026-04-21 21:48 45.19453 -73.83469 19049 ft 372 kts 231°
2026-04-21 21:48 45.17519 -73.85934 19808 ft 376 kts 231°
2026-04-21 21:48 45.15563 -73.88424 20565 ft 380 kts 231°
2026-04-21 21:49 45.13585 -73.90941 21314 ft 385 kts 231°
2026-04-21 21:49 45.11582 -73.93486 22065 ft 389 kts 232°
2026-04-21 21:49 45.09555 -73.96059 22803 ft 394 kts 232°
2026-04-21 21:49 45.07505 -73.98659 23536 ft 398 kts 232°
2026-04-21 21:50 45.05431 -74.01288 24168 ft 403 kts 232°
2026-04-21 21:50 45.03335 -74.03940 24770 ft 406 kts 232°
2026-04-21 21:50 45.01144 -74.06518 25363 ft 419 kts 225°
2026-04-21 21:50 44.98534 -74.08552 25946 ft 440 kts 212°
2026-04-21 21:51 44.95528 -74.09780 26498 ft 461 kts 198°
2026-04-21 21:51 44.92316 -74.10397 27043 ft 469 kts 196°
2026-04-21 21:51 44.89068 -74.10983 27585 ft 472 kts 196°
2026-04-21 21:51 44.85796 -74.11578 28116 ft 476 kts 196°
2026-04-21 21:52 44.82501 -74.12189 28611 ft 479 kts 196°
2026-04-21 21:52 44.79180 -74.12810 29089 ft 483 kts 196°
2026-04-21 21:52 44.75854 -74.13511 29559 ft 480 kts 201°
2026-04-21 21:52 44.72718 -74.14911 29974 ft 468 kts 214°
2026-04-21 21:53 44.69927 -74.17110 30429 ft 453 kts 226°
2026-04-21 21:53 44.67569 -74.19942 30809 ft 443 kts 234°
2026-04-21 21:53 44.65416 -74.23031 31163 ft 442 kts 236°
2026-04-21 21:53 44.63289 -74.26150 31706 ft 442 kts 236°
2026-04-21 21:54 44.61143 -74.29229 32264 ft 441 kts 235°
2026-04-21 21:54 44.58971 -74.32270 32834 ft 440 kts 234°
2026-04-21 21:54 44.56791 -74.35273 33408 ft 439 kts 234°
2026-04-21 21:54 44.54609 -74.38250 34017 ft 436 kts 233°
2026-04-21 21:55 44.52464 -74.41166 34534 ft 434 kts 233°
2026-04-21 21:55 44.50307 -74.44095 35029 ft 430 kts 233°
2026-04-21 21:55 44.48139 -74.47035 35566 ft 426 kts 233°
2026-04-21 21:55 44.46016 -74.49912 36103 ft 422 kts 233°
2026-04-21 21:56 44.43945 -74.52715 36654 ft 417 kts 233°
2026-04-21 21:56 44.41845 -74.55555 37228 ft 412 kts 233°
2026-04-21 21:56 44.39802 -74.58315 37802 ft 406 kts 233°
2026-04-21 21:56 44.37760 -74.61080 37948 ft 412 kts 232°
2026-04-21 21:57 44.35689 -74.63884 38054 ft 417 kts 232°
2026-04-21 21:57 44.31458 -74.69594 38191 ft 429 kts 232°
2026-04-21 21:58 44.27108 -74.75441 38209 ft 445 kts 231°
2026-04-21 21:58 44.22615 -74.81453 38219 ft 447 kts 231°
2026-04-21 21:59 44.18124 -74.87446 38185 ft 447 kts 231°
2026-04-21 21:59 44.13632 -74.93439 38224 ft 447 kts 231°
2026-04-21 22:00 44.09133 -74.99428 38207 ft 447 kts 231°
2026-04-21 22:00 44.04638 -75.05398 38212 ft 447 kts 231°
2026-04-21 22:01 44.00146 -75.11352 38226 ft 446 kts 231°
2026-04-21 22:01 43.95655 -75.17291 38225 ft 446 kts 231°
2026-04-21 22:02 43.91165 -75.23217 38213 ft 445 kts 231°
2026-04-21 22:02 43.86673 -75.29131 38215 ft 445 kts 231°
2026-04-21 22:03 43.82180 -75.35034 38215 ft 445 kts 231°
2026-04-21 22:03 43.77715 -75.40887 38207 ft 445 kts 231°
2026-04-21 22:04 43.73198 -75.46794 38225 ft 443 kts 231°
2026-04-21 22:04 43.68747 -75.52605 38199 ft 443 kts 230°
2026-04-21 22:05 43.64238 -75.58478 38200 ft 442 kts 230°
2026-04-21 22:05 43.59759 -75.64298 38215 ft 442 kts 230°
2026-04-21 22:06 43.55277 -75.70110 38213 ft 442 kts 230°
2026-04-21 22:06 43.50791 -75.75916 38211 ft 442 kts 230°
2026-04-21 22:07 43.46303 -75.81713 38199 ft 442 kts 230°
2026-04-21 22:07 43.41837 -75.87466 38206 ft 443 kts 230°
2026-04-21 22:08 43.37337 -75.93252 38194 ft 443 kts 230°
2026-04-21 22:08 43.32826 -75.99040 38183 ft 444 kts 230°
2026-04-21 22:09 43.28305 -76.04829 38183 ft 445 kts 230°
2026-04-21 22:09 43.23778 -76.10613 38178 ft 445 kts 229°
2026-04-21 22:10 43.19243 -76.16396 38187 ft 445 kts 229°
2026-04-21 22:10 43.14406 -76.21774 38178 ft 452 kts 220°
2026-04-21 22:11 43.09023 -76.26303 38183 ft 455 kts 217°
2026-04-21 22:11 43.03600 -76.30775 38186 ft 455 kts 217°
2026-04-21 22:12 42.98180 -76.35253 38185 ft 455 kts 217°
2026-04-21 22:12 42.92760 -76.39722 38189 ft 455 kts 217°
2026-04-21 22:13 42.87297 -76.44216 38195 ft 455 kts 217°
2026-04-21 22:13 42.81906 -76.48641 38185 ft 455 kts 217°
2026-04-21 22:14 42.76481 -76.53085 38191 ft 455 kts 217°
2026-04-21 22:14 42.71059 -76.57517 38188 ft 454 kts 217°
2026-04-21 22:15 42.65639 -76.61939 38183 ft 454 kts 217°
2026-04-21 22:15 42.60226 -76.66347 38182 ft 453 kts 217°
2026-04-21 22:16 42.54814 -76.70743 38171 ft 453 kts 217°
2026-04-21 22:16 42.49406 -76.75127 38168 ft 452 kts 217°
2026-04-21 22:17 42.44008 -76.79495 38161 ft 452 kts 217°
2026-04-21 22:17 42.38611 -76.83855 38155 ft 452 kts 217°
2026-04-21 22:18 42.33210 -76.88207 38159 ft 452 kts 217°
2026-04-21 22:18 42.27811 -76.92550 38178 ft 452 kts 216°
2026-04-21 22:19 42.22415 -76.96881 38167 ft 451 kts 216°
2026-04-21 22:19 42.17017 -77.01204 38143 ft 451 kts 216°
2026-04-21 22:20 42.11617 -77.05519 38152 ft 451 kts 216°
2026-04-21 22:20 42.06219 -77.09825 38151 ft 451 kts 216°
2026-04-21 22:21 42.00818 -77.14126 38160 ft 451 kts 216°
2026-04-21 22:21 41.95416 -77.18417 38167 ft 451 kts 216°
2026-04-21 22:22 41.90014 -77.22701 38171 ft 451 kts 216°
2026-04-21 22:22 41.84621 -77.26968 38180 ft 450 kts 216°
2026-04-21 22:23 41.79228 -77.31229 38174 ft 449 kts 216°
2026-04-21 22:23 41.73836 -77.35478 38179 ft 450 kts 216°
2026-04-21 22:24 41.68445 -77.39719 38182 ft 449 kts 216°
2026-04-21 22:24 41.63058 -77.43948 38179 ft 449 kts 216°
2026-04-21 22:25 41.57668 -77.48172 38184 ft 449 kts 216°
2026-04-21 22:25 41.52273 -77.52392 38186 ft 450 kts 216°
2026-04-21 22:26 41.46905 -77.56583 38195 ft 450 kts 216°
2026-04-21 22:26 41.41501 -77.60792 38181 ft 448 kts 216°
2026-04-21 22:27 41.36144 -77.64956 38184 ft 446 kts 216°
2026-04-21 22:27 41.30779 -77.69120 38182 ft 446 kts 216°
2026-04-21 22:28 41.25421 -77.73270 38185 ft 446 kts 216°
2026-04-21 22:28 41.20059 -77.77417 38191 ft 446 kts 216°
2026-04-21 22:29 41.14697 -77.81554 38177 ft 446 kts 216°
2026-04-21 22:29 41.09342 -77.85678 38178 ft 445 kts 216°
2026-04-21 22:30 41.03995 -77.89788 38176 ft 444 kts 216°
2026-04-21 22:30 40.98643 -77.93895 38175 ft 445 kts 216°
2026-04-21 22:31 40.93416 -77.98220 38167 ft 440 kts 222°
2026-04-21 22:31 40.88867 -78.03505 38171 ft 432 kts 232°
2026-04-21 22:32 40.84930 -78.09474 38174 ft 431 kts 234°
2026-04-21 22:32 40.81017 -78.15469 38175 ft 431 kts 234°
2026-04-21 22:33 40.77091 -78.21446 38179 ft 431 kts 234°
2026-04-21 22:33 40.73822 -78.26410 38169 ft 431 kts 234°
2026-04-21 22:34 40.69890 -78.32373 38180 ft 431 kts 234°
2026-04-21 22:34 40.65953 -78.38332 38182 ft 431 kts 234°
2026-04-21 22:35 40.62012 -78.44285 38168 ft 431 kts 234°
2026-04-21 22:35 40.58070 -78.50228 38169 ft 431 kts 234°
2026-04-21 22:36 40.52151 -78.59128 38175 ft 431 kts 234°
2026-04-21 22:36 40.48207 -78.65044 38172 ft 430 kts 234°
2026-04-21 22:37 40.44260 -78.70958 38167 ft 432 kts 233°
2026-04-21 22:37 40.40284 -78.76901 38131 ft 434 kts 233°
2026-04-21 22:38 40.36300 -78.82841 38097 ft 433 kts 233°
2026-04-21 22:38 40.32317 -78.88771 38132 ft 433 kts 233°
2026-04-21 22:39 40.28333 -78.94691 38123 ft 433 kts 233°
2026-04-21 22:39 40.24344 -79.00606 38131 ft 433 kts 233°
2026-04-21 22:40 40.20352 -79.06513 38158 ft 433 kts 233°
2026-04-21 22:40 40.16366 -79.12398 38159 ft 430 kts 233°
2026-04-21 22:41 40.12407 -79.18266 38156 ft 431 kts 234°
2026-04-21 22:41 40.08493 -79.24180 38154 ft 430 kts 234°
2026-04-21 22:42 40.04601 -79.30050 38141 ft 431 kts 234°
2026-04-21 22:42 40.00672 -79.35948 38133 ft 431 kts 234°
2026-04-21 22:43 39.96741 -79.41836 38124 ft 430 kts 234°
2026-04-21 22:43 39.92837 -79.47663 38112 ft 423 kts 234°
2026-04-21 22:44 39.88954 -79.53459 38109 ft 425 kts 234°
2026-04-21 22:44 39.85059 -79.59260 38119 ft 425 kts 234°
2026-04-21 22:45 39.81163 -79.65050 38122 ft 425 kts 234°
2026-04-21 22:45 39.77264 -79.70835 38132 ft 426 kts 234°
2026-04-21 22:46 39.73345 -79.76639 38133 ft 428 kts 234°
2026-04-21 22:46 39.69417 -79.82443 38118 ft 425 kts 234°
2026-04-21 22:47 39.65519 -79.88192 38119 ft 425 kts 234°
2026-04-21 22:47 39.61614 -79.93945 38118 ft 425 kts 234°
2026-04-21 22:48 39.57705 -79.99683 38119 ft 425 kts 233°
2026-04-21 22:48 39.53012 -80.04510 38120 ft 440 kts 215°
2026-04-21 22:49 39.47171 -80.07222 38118 ft 456 kts 195°
2026-04-21 22:49 39.40761 -80.07633 38117 ft 464 kts 186°
2026-04-21 22:50 39.34312 -80.07721 38104 ft 463 kts 186°
2026-04-21 22:50 39.27865 -80.07822 38107 ft 463 kts 186°
2026-04-21 22:51 39.21412 -80.07923 38109 ft 464 kts 186°
2026-04-21 22:51 39.14957 -80.08023 38102 ft 464 kts 186°
2026-04-21 22:52 39.08497 -80.08121 38129 ft 464 kts 186°
2026-04-21 22:52 39.02065 -80.08221 38150 ft 465 kts 186°
2026-04-21 22:53 38.95589 -80.08335 38158 ft 465 kts 188°
2026-04-21 22:53 38.89245 -80.09376 38154 ft 456 kts 199°
2026-04-21 22:54 38.83158 -80.11488 38172 ft 453 kts 202°
2026-04-21 22:54 38.77071 -80.13644 38187 ft 454 kts 201°
2026-04-21 22:55 38.70967 -80.15785 38187 ft 455 kts 201°
2026-04-21 22:55 38.64866 -80.17919 38191 ft 455 kts 201°
2026-04-21 22:56 38.58771 -80.20046 38184 ft 453 kts 201°
2026-04-21 22:56 38.52696 -80.22166 38188 ft 453 kts 201°
2026-04-21 22:57 38.46622 -80.24279 38185 ft 453 kts 202°
2026-04-21 22:57 38.40543 -80.26391 38195 ft 453 kts 202°
2026-04-21 22:58 38.34466 -80.28499 38200 ft 453 kts 202°
2026-04-21 22:58 38.28383 -80.30604 38202 ft 453 kts 201°
2026-04-21 22:59 38.22301 -80.32705 38195 ft 452 kts 201°
2026-04-21 22:59 38.16222 -80.34804 38195 ft 453 kts 201°
2026-04-21 23:00 38.10139 -80.36900 38193 ft 453 kts 201°
2026-04-21 23:00 38.04056 -80.38991 38206 ft 453 kts 201°
2026-04-21 23:01 37.97969 -80.41080 38208 ft 453 kts 201°
2026-04-21 23:01 37.91883 -80.43164 38193 ft 453 kts 201°
2026-04-21 23:02 37.85806 -80.45243 38193 ft 453 kts 201°
2026-04-21 23:02 37.79722 -80.47320 38169 ft 452 kts 201°
2026-04-21 23:03 37.73683 -80.49379 38194 ft 453 kts 201°
2026-04-21 23:03 37.67598 -80.51450 38200 ft 453 kts 201°
2026-04-21 23:04 37.61510 -80.53518 38208 ft 453 kts 201°
2026-04-21 23:04 37.55425 -80.55578 38213 ft 453 kts 202°
2026-04-21 23:05 37.49345 -80.57638 38221 ft 453 kts 202°
2026-04-21 23:05 37.43259 -80.59697 38228 ft 453 kts 202°
2026-04-21 23:06 37.37168 -80.61752 38215 ft 453 kts 202°
2026-04-21 23:06 37.31084 -80.63802 38218 ft 452 kts 202°
2026-04-21 23:07 37.25007 -80.65844 38237 ft 452 kts 202°
2026-04-21 23:07 37.18933 -80.67883 38236 ft 452 kts 202°
2026-04-21 23:08 37.12862 -80.69910 38228 ft 452 kts 200°
2026-04-21 23:08 37.06599 -80.71129 38230 ft 460 kts 190°
2026-04-21 23:09 37.00144 -80.71112 38231 ft 465 kts 185°
2026-04-21 23:09 36.93674 -80.70938 38257 ft 465 kts 185°
2026-04-21 23:10 36.87206 -80.70783 38264 ft 465 kts 185°
2026-04-21 23:10 36.80730 -80.70630 38259 ft 465 kts 186°
2026-04-21 23:11 36.74256 -80.70480 38264 ft 466 kts 186°
2026-04-21 23:11 36.67820 -80.70330 38265 ft 466 kts 186°
2026-04-21 23:12 36.61326 -80.70178 38280 ft 469 kts 186°
2026-04-21 23:12 36.54778 -80.70027 38263 ft 474 kts 186°
2026-04-21 23:13 36.48194 -80.69870 38269 ft 473 kts 186°
2026-04-21 23:13 36.41614 -80.69718 38265 ft 473 kts 186°
2026-04-21 23:14 36.35030 -80.69566 38267 ft 474 kts 186°
2026-04-21 23:14 36.28443 -80.69413 38274 ft 473 kts 186°
2026-04-21 23:15 36.21853 -80.69261 38276 ft 473 kts 186°
2026-04-21 23:15 36.15268 -80.69110 38272 ft 473 kts 186°
2026-04-21 23:16 36.08737 -80.68957 38266 ft 464 kts 186°
2026-04-21 23:16 36.02270 -80.68810 38265 ft 466 kts 186°
2026-04-21 23:17 35.95789 -80.68664 38272 ft 466 kts 186°
2026-04-21 23:17 35.89311 -80.68516 38271 ft 466 kts 186°
2026-04-21 23:18 35.82874 -80.68367 38289 ft 461 kts 186°
2026-04-21 23:18 35.76447 -80.68223 38289 ft 462 kts 186°
2026-04-21 23:19 35.70019 -80.68077 38289 ft 462 kts 186°
2026-04-21 23:19 35.63591 -80.67931 38303 ft 462 kts 186°
2026-04-21 23:20 35.58250 -80.67810 38311 ft 462 kts 186°
2026-04-21 23:20 35.50780 -80.67641 38310 ft 462 kts 186°
2026-04-21 23:21 35.45398 -80.67519 38313 ft 462 kts 186°
2026-04-21 23:21 35.37934 -80.67351 38297 ft 462 kts 186°
2026-04-21 23:22 35.32552 -80.67230 38302 ft 462 kts 186°
2026-04-21 23:22 35.26119 -80.67085 38305 ft 462 kts 186°
2026-04-21 23:23 35.19725 -80.66941 38311 ft 463 kts 186°
2026-04-21 23:23 35.13282 -80.66797 38303 ft 463 kts 186°
2026-04-21 23:24 35.06834 -80.66652 38312 ft 463 kts 186°
2026-04-21 23:24 35.00384 -80.66508 38316 ft 464 kts 186°
2026-04-21 23:25 34.93931 -80.66364 38315 ft 464 kts 186°
2026-04-21 23:25 34.87469 -80.66220 38302 ft 464 kts 186°
2026-04-21 23:26 34.81010 -80.66076 38314 ft 464 kts 186°
2026-04-21 23:26 34.74551 -80.65933 38314 ft 464 kts 186°
2026-04-21 23:27 34.68158 -80.66232 38308 ft 452 kts 198°
2026-04-21 23:27 34.62398 -80.68772 38293 ft 433 kts 217°
2026-04-21 23:28 34.57742 -80.73152 38301 ft 420 kts 229°
2026-04-21 23:28 34.53390 -80.77897 38305 ft 421 kts 229°
2026-04-21 23:29 34.49014 -80.82634 38307 ft 422 kts 229°
2026-04-21 23:29 34.44638 -80.87361 38308 ft 422 kts 229°
2026-04-21 23:30 34.40290 -80.92052 38304 ft 421 kts 229°
2026-04-21 23:30 34.35947 -80.96726 38305 ft 416 kts 229°
2026-04-21 23:31 34.31220 -81.00935 38309 ft 429 kts 218°
2026-04-21 23:31 34.25750 -81.03994 38304 ft 440 kts 206°
2026-04-21 23:32 34.19881 -81.06232 38304 ft 442 kts 205°
2026-04-21 23:32 34.14024 -81.08479 38277 ft 441 kts 206°
2026-04-21 23:33 34.08180 -81.10722 38291 ft 441 kts 206°
2026-04-21 23:33 34.02340 -81.12962 38289 ft 440 kts 206°
2026-04-21 23:34 33.96502 -81.15198 38289 ft 440 kts 206°
2026-04-21 23:34 33.90661 -81.17431 38288 ft 440 kts 206°
2026-04-21 23:35 33.84826 -81.19658 38292 ft 440 kts 206°
2026-04-21 23:35 33.78988 -81.21884 38283 ft 440 kts 206°
2026-04-21 23:36 33.73145 -81.24108 38285 ft 441 kts 206°
2026-04-21 23:36 33.67295 -81.26332 38287 ft 441 kts 206°
2026-04-21 23:37 33.61489 -81.28535 38279 ft 440 kts 206°
2026-04-21 23:37 33.55651 -81.30748 38294 ft 440 kts 206°
2026-04-21 23:38 33.49809 -81.32959 38297 ft 440 kts 206°
2026-04-21 23:38 33.43965 -81.35168 38308 ft 440 kts 206°
2026-04-21 23:39 33.38125 -81.37372 38281 ft 440 kts 206°
2026-04-21 23:39 33.32288 -81.39572 38300 ft 440 kts 206°
2026-04-21 23:40 33.26455 -81.41781 38301 ft 439 kts 207°
2026-04-21 23:40 33.20730 -81.44240 38301 ft 437 kts 208°
2026-04-21 23:41 33.15017 -81.46740 38302 ft 438 kts 208°
2026-04-21 23:41 33.09287 -81.49205 38301 ft 438 kts 208°
2026-04-21 23:42 33.03555 -81.51655 38294 ft 438 kts 208°
2026-04-21 23:42 32.97818 -81.54102 38297 ft 438 kts 208°
2026-04-21 23:43 32.92081 -81.56547 38298 ft 438 kts 208°
2026-04-21 23:43 32.86377 -81.59062 38277 ft 436 kts 209°
2026-04-21 23:44 32.80715 -81.61656 38302 ft 436 kts 209°
2026-04-21 23:44 32.75084 -81.64216 38304 ft 436 kts 209°
2026-04-21 23:45 32.66585 -81.68053 38305 ft 436 kts 208°
2026-04-21 23:46 32.60909 -81.70610 38282 ft 436 kts 208°
2026-04-21 23:46 32.55230 -81.73165 38271 ft 436 kts 208°
2026-04-21 23:47 32.49553 -81.75716 38273 ft 437 kts 208°
2026-04-21 23:47 32.43870 -81.78266 38274 ft 437 kts 208°
2026-04-21 23:48 32.38251 -81.80784 38277 ft 437 kts 208°
2026-04-21 23:48 32.32564 -81.83329 38286 ft 437 kts 208°
2026-04-21 23:49 32.26877 -81.85871 38290 ft 437 kts 208°
2026-04-21 23:49 32.21181 -81.88414 38292 ft 438 kts 208°
2026-04-21 23:50 32.15482 -81.90954 38291 ft 438 kts 208°
2026-04-21 23:50 32.09658 -81.93212 38293 ft 442 kts 205°
2026-04-21 23:51 32.03799 -81.95400 38283 ft 442 kts 205°
2026-04-21 23:51 31.97942 -81.97590 38284 ft 442 kts 205°
2026-04-21 23:52 31.92078 -81.99779 38288 ft 442 kts 205°
2026-04-21 23:52 31.86186 -82.01907 38287 ft 446 kts 201°
2026-04-21 23:53 31.80140 -82.03457 38287 ft 448 kts 199°
2026-04-21 23:53 31.74050 -82.04990 38285 ft 447 kts 199°
2026-04-21 23:54 31.67964 -82.06527 38287 ft 447 kts 199°
2026-04-21 23:54 31.61878 -82.08063 38310 ft 447 kts 199°
2026-04-21 23:55 31.55790 -82.09597 38310 ft 447 kts 199°
2026-04-21 23:55 31.49709 -82.11129 38301 ft 447 kts 199°
2026-04-21 23:56 31.43630 -82.12657 38297 ft 447 kts 199°
2026-04-21 23:56 31.37549 -82.14183 38283 ft 447 kts 199°
2026-04-21 23:57 31.31468 -82.15707 38286 ft 447 kts 199°
2026-04-21 23:57 31.25387 -82.17229 38284 ft 446 kts 199°
2026-04-21 23:58 31.19315 -82.18747 38285 ft 446 kts 199°
2026-04-21 23:58 31.13237 -82.20265 38284 ft 447 kts 199°
2026-04-21 23:59 31.07163 -82.21779 38285 ft 447 kts 199°
2026-04-21 23:59 31.01081 -82.23294 38283 ft 447 kts 199°
2026-04-22 00:00 30.95043 -82.24795 38267 ft 447 kts 199°
2026-04-22 00:00 30.88962 -82.26304 38268 ft 447 kts 199°
2026-04-22 00:01 30.82877 -82.27814 38278 ft 447 kts 199°
2026-04-22 00:01 30.76783 -82.29324 38274 ft 448 kts 199°
2026-04-22 00:02 30.70685 -82.30833 38275 ft 448 kts 199°
2026-04-22 00:02 30.64528 -82.32072 38275 ft 453 kts 192°
2026-04-22 00:03 30.58253 -82.32839 38272 ft 453 kts 192°
2026-04-22 00:03 30.51977 -82.33618 38275 ft 454 kts 193°
2026-04-22 00:04 30.45697 -82.34402 38290 ft 454 kts 193°
2026-04-22 00:04 30.39415 -82.35184 38294 ft 454 kts 193°
2026-04-22 00:05 30.33132 -82.35966 38295 ft 454 kts 192°
2026-04-22 00:05 30.26844 -82.36748 38291 ft 454 kts 192°
2026-04-22 00:06 30.20553 -82.37528 38291 ft 455 kts 192°
2026-04-22 00:06 30.14205 -82.37823 38286 ft 460 kts 183°
2026-04-22 00:07 30.07807 -82.37442 38286 ft 461 kts 184°
2026-04-22 00:07 30.05884 -82.37331 38285 ft 461 kts 184°
2026-04-22 00:08 29.99839 -82.36991 38289 ft 461 kts 184°
2026-04-22 00:08 29.96639 -82.36813 38158 ft 461 kts 184°
2026-04-22 00:08 29.93433 -82.36635 37823 ft 461 kts 184°
2026-04-22 00:08 29.90226 -82.36457 37303 ft 462 kts 183°
2026-04-22 00:09 29.87009 -82.36279 36756 ft 464 kts 183°
2026-04-22 00:09 29.83778 -82.36101 36198 ft 466 kts 183°
2026-04-22 00:09 29.80531 -82.35922 35648 ft 468 kts 182°
2026-04-22 00:09 29.77273 -82.35741 35097 ft 470 kts 182°
2026-04-22 00:10 29.74000 -82.35559 34551 ft 471 kts 182°
2026-04-22 00:10 29.70763 -82.35380 33989 ft 473 kts 182°
2026-04-22 00:10 29.67471 -82.35197 33371 ft 473 kts 182°
2026-04-22 00:10 29.64194 -82.35014 32779 ft 472 kts 182°
2026-04-22 00:11 29.60916 -82.34832 32197 ft 471 kts 182°
2026-04-22 00:11 29.57642 -82.34652 31605 ft 472 kts 182°
2026-04-22 00:11 29.54363 -82.34471 31048 ft 472 kts 182°
2026-04-22 00:11 29.51091 -82.34289 30487 ft 468 kts 182°
2026-04-22 00:12 29.47862 -82.34108 29882 ft 460 kts 182°
2026-04-22 00:12 29.44715 -82.33931 29240 ft 444 kts 182°
2026-04-22 00:12 29.42656 -82.33814 28827 ft 434 kts 182°
2026-04-22 00:12 29.39727 -82.33615 28235 ft 422 kts 179°
2026-04-22 00:13 29.36818 -82.33262 27634 ft 409 kts 179°
2026-04-22 00:13 29.34027 -82.32925 27057 ft 398 kts 179°
2026-04-22 00:13 29.31935 -82.32675 26628 ft 390 kts 179°
2026-04-22 00:13 29.29223 -82.32353 26054 ft 386 kts 179°
2026-04-22 00:14 29.26572 -82.32041 25506 ft 385 kts 179°
2026-04-22 00:14 29.23890 -82.31725 24971 ft 383 kts 179°
2026-04-22 00:14 29.21252 -82.31411 24449 ft 380 kts 179°
2026-04-22 00:14 29.18634 -82.31099 23934 ft 377 kts 179°
2026-04-22 00:15 29.16064 -82.30794 23353 ft 376 kts 179°
2026-04-22 00:15 29.13473 -82.30488 22743 ft 373 kts 179°
2026-04-22 00:15 29.10904 -82.30183 22147 ft 369 kts 178°
2026-04-22 00:15 29.08365 -82.29882 21569 ft 365 kts 178°
2026-04-22 00:16 29.05851 -82.29585 21004 ft 361 kts 178°
2026-04-22 00:16 29.03361 -82.29291 20444 ft 358 kts 178°
2026-04-22 00:16 29.00893 -82.29000 19889 ft 354 kts 177°
2026-04-22 00:16 28.98454 -82.28713 19350 ft 351 kts 176°
2026-04-22 00:17 28.96036 -82.28427 18823 ft 348 kts 176°
2026-04-22 00:17 28.93643 -82.28144 18262 ft 344 kts 176°
2026-04-22 00:17 28.91267 -82.27862 17664 ft 341 kts 176°
2026-04-22 00:17 28.88918 -82.27585 17069 ft 338 kts 175°
2026-04-22 00:18 28.86584 -82.27309 16499 ft 336 kts 175°
2026-04-22 00:18 28.84271 -82.27036 15934 ft 333 kts 175°
2026-04-22 00:18 28.81974 -82.26765 15386 ft 330 kts 175°
2026-04-22 00:18 28.79697 -82.26497 14845 ft 328 kts 175°
2026-04-22 00:19 28.77440 -82.26230 14307 ft 325 kts 174°
2026-04-22 00:19 28.75201 -82.25965 13740 ft 322 kts 174°
2026-04-22 00:19 28.72988 -82.25803 13378 ft 312 kts 180°
2026-04-22 00:19 28.70826 -82.25780 13273 ft 314 kts 180°
2026-04-22 00:20 28.68632 -82.25745 13170 ft 316 kts 180°
2026-04-22 00:20 28.66443 -82.25707 13058 ft 313 kts 180°
2026-04-22 00:20 28.64279 -82.25670 13005 ft 309 kts 179°
2026-04-22 00:20 28.62120 -82.25631 13003 ft 312 kts 180°
2026-04-22 00:21 28.59940 -82.25587 13003 ft 313 kts 179°
2026-04-22 00:21 28.57768 -82.25543 12998 ft 312 kts 179°
2026-04-22 00:21 28.55604 -82.25499 12998 ft 311 kts 179°
2026-04-22 00:21 28.53426 -82.25456 12863 ft 315 kts 179°
2026-04-22 00:22 28.51244 -82.25416 12500 ft 314 kts 179°
2026-04-22 00:22 28.49074 -82.25386 12133 ft 309 kts 179°
2026-04-22 00:22 28.46934 -82.25360 11759 ft 305 kts 179°
2026-04-22 00:22 28.44820 -82.25335 11398 ft 303 kts 179°
2026-04-22 00:23 28.42713 -82.25308 11045 ft 302 kts 179°
2026-04-22 00:23 28.40611 -82.25280 10683 ft 298 kts 179°
2026-04-22 00:23 28.38567 -82.25254 10349 ft 295 kts 179°
2026-04-22 00:23 28.36537 -82.25556 10016 ft 295 kts 198°
2026-04-22 00:24 28.34740 -82.26648 9677 ft 294 kts 219°
2026-04-22 00:24 28.33175 -82.28146 9349 ft 296 kts 220°
2026-04-22 00:24 28.31604 -82.29661 9017 ft 296 kts 220°
2026-04-22 00:24 28.30043 -82.31160 8690 ft 293 kts 220°
2026-04-22 00:25 28.28489 -82.32646 8370 ft 293 kts 220°
2026-04-22 00:25 28.26915 -82.34147 8048 ft 298 kts 220°
2026-04-22 00:25 28.25336 -82.35652 7723 ft 295 kts 220°
2026-04-22 00:25 28.23774 -82.37139 7418 ft 291 kts 220°
2026-04-22 00:26 28.22223 -82.38613 7164 ft 292 kts 220°
2026-04-22 00:26 28.20646 -82.40066 7076 ft 292 kts 213°
2026-04-22 00:26 28.18833 -82.40954 7010 ft 280 kts 190°
2026-04-22 00:26 28.16880 -82.41119 7004 ft 286 kts 178°
2026-04-22 00:27 28.14896 -82.41153 7001 ft 283 kts 179°
2026-04-22 00:27 28.12918 -82.41196 7002 ft 285 kts 179°
2026-04-22 00:27 28.10940 -82.41242 6999 ft 285 kts 179°
2026-04-22 00:27 28.08949 -82.41290 6996 ft 288 kts 179°
2026-04-22 00:28 28.06943 -82.41338 6993 ft 286 kts 179°
2026-04-22 00:28 28.04962 -82.41386 6998 ft 284 kts 180°
2026-04-22 00:28 28.03000 -82.41434 6998 ft 287 kts 179°
2026-04-22 00:28 28.00975 -82.41485 6997 ft 288 kts 179°
2026-04-22 00:29 27.98975 -82.41533 6995 ft 285 kts 179°
2026-04-22 00:29 27.96996 -82.41576 6987 ft 284 kts 180°
2026-04-22 00:29 27.95036 -82.41618 6983 ft 287 kts 179°
2026-04-22 00:29 27.93041 -82.41660 6783 ft 285 kts 179°
2026-04-22 00:30 27.91063 -82.41703 6252 ft 283 kts 179°
2026-04-22 00:30 27.89126 -82.41754 5789 ft 274 kts 179°
2026-04-22 00:30 27.87257 -82.41808 5359 ft 264 kts 178°
2026-04-22 00:30 27.85480 -82.41858 5082 ft 247 kts 177°
2026-04-22 00:31 27.83795 -82.41903 4652 ft 238 kts 176°
2026-04-22 00:31 27.82160 -82.41944 4223 ft 232 kts 176°
2026-04-22 00:31 27.80562 -82.41983 3798 ft 227 kts 176°
2026-04-22 00:31 27.78999 -82.42021 3374 ft 223 kts 176°
2026-04-22 00:32 27.77484 -82.42057 3213 ft 217 kts 175°
2026-04-22 00:32 27.75936 -82.42090 3223 ft 221 kts 176°
2026-04-22 00:32 27.74398 -82.42126 3221 ft 221 kts 176°
2026-04-22 00:32 27.72862 -82.42165 3219 ft 222 kts 176°
2026-04-22 00:33 27.71320 -82.42385 3204 ft 229 kts 197°
2026-04-22 00:33 27.70031 -82.43460 3222 ft 237 kts 230°
2026-04-22 00:33 27.69406 -82.45181 3221 ft 241 kts 261°
2026-04-22 00:33 27.69227 -82.47065 3223 ft 243 kts 264°
2026-04-22 00:34 27.69063 -82.48955 3072 ft 240 kts 264°
2026-04-22 00:34 27.68900 -82.50835 2980 ft 242 kts 264°
2026-04-22 00:34 27.68750 -82.52724 2973 ft 243 kts 266°
2026-04-22 00:34 27.69036 -82.54549 2972 ft 236 kts 299°
2026-04-22 00:35 27.70095 -82.55907 2973 ft 230 kts 331°
2026-04-22 00:35 27.71575 -82.56417 2973 ft 221 kts 10°
2026-04-22 00:35 27.73033 -82.56003 2968 ft 213 kts 24°
2026-04-22 00:35 27.74437 -82.55463 2969 ft 214 kts 24°
2026-04-22 00:36 27.75882 -82.55024 2972 ft 216 kts 15°
2026-04-22 00:36 27.77386 -82.54841 2971 ft 218 kts
2026-04-22 00:36 27.78897 -82.54815 2972 ft 218 kts
2026-04-22 00:36 27.80415 -82.54762 2972 ft 220 kts
2026-04-22 00:37 27.81941 -82.54714 2801 ft 217 kts
2026-04-22 00:37 27.83404 -82.54668 2497 ft 202 kts
2026-04-22 00:37 27.84751 -82.54623 2236 ft 187 kts
2026-04-22 00:37 27.86004 -82.54581 2014 ft 173 kts
2026-04-22 00:38 27.87141 -82.54544 1780 ft 155 kts
2026-04-22 00:38 27.88176 -82.54509 1582 ft 148 kts 10°
2026-04-22 00:38 27.89218 -82.54470 1383 ft 148 kts
2026-04-22 00:38 27.90203 -82.54441 1190 ft 136 kts 10°
2026-04-22 00:39 27.91182 -82.54405 1036 ft 145 kts
2026-04-22 00:39 27.92200 -82.54367 891 ft 144 kts
2026-04-22 00:39 27.93189 -82.54350 658 ft 142 kts
2026-04-22 00:39 27.94201 -82.54315 471 ft 148 kts
2026-04-22 00:40 27.95222 -82.54271 356 ft 145 kts
2026-04-22 00:40 27.96207 -82.54241 116 ft 137 kts
2026-04-22 00:40 27.97091 -82.54203 40 ft 114 kts
2026-04-22 00:40 27.97679 -82.54181 31 ft 56 kts 357°
2026-04-22 00:41 27.97884 -82.54148 34 ft 23 kts 26°
2026-04-22 00:41 27.97946 -82.54107 34 ft 0 kts 32°
2026-04-22 00:42 27.97951 -82.54103 34 ft 3 kts 32°
2026-04-22 00:42 27.97992 -82.54074 34 ft 10 kts 31°
2026-04-22 00:42 27.98074 -82.54053 36 ft 14 kts 358°
2026-04-22 00:43 27.98184 -82.54047 39 ft 18 kts
2026-04-22 00:43 27.98312 -82.54043 41 ft 16 kts
2026-04-22 00:43 27.98449 -82.54039 43 ft 20 kts
2026-04-22 00:43 27.98572 -82.54020 44 ft 11 kts 54°
2026-04-22 00:44 27.98580 -82.53921 43 ft 16 kts 91°
2026-04-22 00:44 27.98577 -82.53770 39 ft 23 kts 93°
2026-04-22 00:44 27.98572 -82.53575 35 ft 24 kts 92°
2026-04-22 00:44 27.98566 -82.53369 34 ft 28 kts 92°
2026-04-22 00:45 27.98561 -82.53165 30 ft 20 kts 92°
2026-04-22 00:45 27.98554 -82.52992 31 ft 22 kts 104°
2026-04-22 00:45 27.98494 -82.52955 33 ft 11 kts 176°
2026-04-22 00:45 27.98404 -82.52958 32 ft 15 kts 181°
2026-04-22 00:46 27.98276 -82.52961 32 ft 21 kts 181°
2026-04-22 00:46 27.98126 -82.52966 37 ft 23 kts 182°
2026-04-22 00:46 27.97957 -82.52972 38 ft 26 kts 182°
2026-04-22 00:46 27.97820 -82.52977 38 ft 18 kts 181°
2026-04-22 00:47 27.97685 -82.52982 41 ft 21 kts 181°
2026-04-22 00:47 27.97522 -82.52987 40 ft 20 kts 182°
2026-04-22 00:47 27.97375 -82.52992 38 ft 21 kts 181°
2026-04-22 00:47 27.97218 -82.52998 38 ft 20 kts 182°
2026-04-22 00:48 27.97148 -82.53000 36 ft 0 kts 181°
2026-04-22 00:48 27.97118 -82.53001 37 ft 8 kts 181°
2026-04-22 00:49 27.97034 -82.53004 36 ft 16 kts 182°
2026-04-22 00:49 27.96959 -82.52981 35 ft 0 kts 118°
2026-04-22 00:49 27.96953 -82.52967 36 ft 4 kts 114°
2026-04-22 00:50 27.96948 -82.52915 36 ft 10 kts 92°
2026-04-22 00:50 27.96946 -82.52835 39 ft 9 kts 91°
2026-04-22 00:50 27.96943 -82.52752 41 ft 12 kts 92°
2026-04-22 00:50 27.96940 -82.52646 43 ft 15 kts 91°
2026-04-22 00:51 27.96937 -82.52510 42 ft 15 kts 92°
2026-04-22 00:51 27.96920 -82.52386 40 ft 13 kts 134°
2026-04-22 00:51 27.96872 -82.52353 41 ft 8 kts 109°
2026-04-22 00:51 27.96863 -82.52270 41 ft 13 kts 93°
2026-04-22 00:52 27.96808 -82.52229 39 ft 5 kts 176°
2026-04-22 00:52 27.96786 -82.52191 38 ft 9 kts 108°
2026-04-22 00:52 27.96802 -82.52108 37 ft 6 kts 29°
2026-04-22 00:52 27.69643 -82.55501 2968 ft 232 kts 321°
2026-04-22 00:53 27.86848 -82.54554 1836 ft 159 kts